Home   Weather   Bruges   Past weeks

Flag for Belgium Past Weather in Bruges, Belgium — Yesterday and Last 2 Weeks

Now
25 °F

Ice fog.


Feels Like: 20 °F
Forecast: 22 / 34 °F
Wind: 3 mph from East

Location: Oostende Airport

Current Time: Jan 18, 2017 at 12:37:24 am

Latest Report: Jan 17, 2017 at 11:50 pm


Visibility: 2 mi

Pressure: 30.69 "Hg

Humidity: 93%

Dew Point: 23 °F

Location of BrugesLocation

Past Weather in Bruges — Graph

°F

Bruges Temperature Yesterday

Maximum temperature yesterday: 32 °F (at 3:50 pm)
Minimum temperature yesterday: 25 °F (at 8:20 pm)
Average temperature yesterday: 28 °F

High & Low Weather Summary for the Past Weeks

 TemperatureHumidityPressure
High48 °F (Jan 11, 8:50 am)100% (Jan 7, 11:20 am)30.72 "Hg (Jan 7, 11:20 am)
Low25 °F (Jan 17, 8:20 pm)61% (Jan 11, 8:50 pm)29.06 "Hg (Jan 12, 10:20 pm)
Average39 °F84%30.19 "Hg
* Reported Jan 2 11:20 pm — Jan 17 11:20 pm, Bruges, Weather by CustomWeather, © 2017

Note: Actual official high and low records may vary slightly from our data, if they occured in-between our weather recording intervals... More about our weather records

Advertising

Bruges Weather History for the Previous 24 Hours

Scroll right to see more
 ConditionsComfort  
Time TempWeatherWind HumidityBarometerVisibility
11:20 pm
Tue, Jan 17
25 °FIce fog.5 mph86%30.69 "Hg2 mi
10:50 pm25 °FIce fog.5 mph93%30.69 "Hg2 mi
10:20 pm25 °FIce fog.5 mph86%30.69 "Hg2 mi
9:50 pm25 °FIce fog.5 mph93%30.69 "Hg2 mi
9:20 pm25 °FIce fog.5 mph86%30.69 "Hg2 mi
8:50 pm27 °FIce fog.5 mph86%30.66 "Hg2 mi
8:20 pm25 °FIce fog.5 mph93%30.69 "Hg2 mi
7:50 pm27 °FIce fog.5 mph86%30.69 "Hg2 mi
7:20 pm27 °FIce fog.5 mph86%30.66 "Hg3 mi
6:50 pm27 °FIce fog.6 mph86%30.66 "Hg3 mi
6:20 pm28 °FIce fog.5 mph80%30.66 "Hg3 mi
5:50 pm28 °FIce fog.5 mph80%30.66 "Hg3 mi
5:20 pm28 °FIce fog.5 mph86%30.66 "Hg3 mi
4:50 pm30 °FIce fog.3 mph86%30.66 "Hg3 mi
4:20 pm30 °FIce fog.2 mph86%30.66 "Hg3 mi
3:50 pm32 °FIce fog.3 mph80%30.66 "Hg3 mi
3:20 pm30 °FIce fog.2 mph80%30.66 "Hg3 mi
2:50 pm30 °FIce fog.3 mph80%30.63 "Hg3 mi
2:20 pm30 °FIce fog.5 mph80%30.66 "Hg2 mi
1:50 pm30 °FIce fog.5 mph80%30.66 "Hg2 mi
1:20 pm28 °FIce fog.5 mph86%30.66 "Hg2 mi
12:50 pm28 °FIce fog.2 mph86%30.66 "Hg2 mi
12:20 pm28 °FIce fog.3 mph86%30.66 "Hg2 mi
11:50 am28 °FIce fog.3 mph86%30.66 "Hg2 mi
11:20 am28 °FIce fog.3 mph86%30.66 "Hg2 mi
10:50 am27 °FIce fog.6 mph86%30.63 "Hg2 mi
10:20 am27 °FIce fog.6 mph86%30.63 "Hg2 mi
9:50 am27 °FIce fog.6 mph86%30.63 "Hg2 mi
9:20 am27 °FIce fog.7 mph86%30.63 "Hg2 mi
8:50 am27 °FIce fog.5 mph86%30.63 "Hg2 mi
8:20 am27 °FIce fog.6 mph86%30.60 "Hg2 mi
7:50 am27 °FIce fog.6 mph86%30.60 "Hg2 mi
7:20 am27 °FIce fog.6 mph86%30.60 "Hg2 mi
6:50 am27 °FIce fog.6 mph93%30.57 "Hg2 mi
6:20 am27 °FIce fog.3 mph93%30.57 "Hg2 mi
5:50 am28 °FIce fog.3 mph86%30.57 "Hg2 mi
5:20 am28 °FIce fog.5 mph86%30.57 "Hg2 mi
4:50 am28 °FIce fog.3 mph86%30.54 "Hg2 mi
4:20 am28 °FIce fog.5 mph86%30.54 "Hg3 mi
3:50 am28 °FIce fog.5 mph86%30.54 "Hg3 mi
3:20 am28 °FIce fog.5 mph86%30.54 "Hg3 mi
2:50 am30 °FIce fog.3 mph86%30.54 "Hg3 mi
2:20 am28 °FIce fog.5 mph86%30.51 "Hg3 mi
1:50 am28 °FIce fog.3 mph86%30.51 "Hg3 mi
1:20 am28 °FIce fog.5 mph86%30.51 "Hg3 mi
12:50 am30 °FIce fog.8 mph86%30.51 "Hg3 mi
12:20 am30 °FIce fog.7 mph86%30.51 "Hg3 mi
Weather by CustomWeather, © 2017

See weather overviewHow to use our weather pages